Hourly Data Report for October 27, 2016

All times are specified in Local Standard Time (LST). Add 1 hour to adjust for Daylight Saving Time where and when it is observed.

CLYDE RIVER A
NUNAVUT

70°29'09.000" N
68°31'01.000" W
26.50 m
2400804
71090
YCY

Download Data

Hourly Data (October 2016)
Hourly Data Report for October 27, 2016
Temp Definition
°C
Dew Point Temp Definition
°C
Rel Hum Definition
%
Wind Dir Definition
10's deg

Wind Spd Definition
km/h
Visibility Definition
km
Stn Press Definition
kPa
Hmdx Definition


Wind Chill Definition


Weather Definition


TIME
00:00 Legend Double Dagger -12.1 -16.9 68 27 9 16.1 100.60   -17 LegendNANA
01:00 Legend Double Dagger -12.4 -16.5 72 28 5 16.1 100.60   -16 LegendNANA
02:00 Legend Double Dagger -10.8 -16.0 66 27 8 16.1 100.63   -15 LegendNANA
03:00 Legend Double Dagger -10.4 -15.1 69 26 9 16.1 100.63   -15 LegendNANA
04:00 Legend Double Dagger -10.0 -14.5 70 26 8 16.1 100.61   -14 LegendNANA
05:00 Legend Double Dagger -11.7 -15.4 75 26 8 16.1 100.59   -16 LegendNANA
06:00 Legend Double Dagger -12.7 -15.7 79   0 16.1 100.61     LegendNANA
07:00 Legend Double Dagger -13.1 -16.0 79 33 8 16.1 100.60   -18 LegendNANA
08:00 Legend Double Dagger -13.3 -15.5 84 32 9 16.1 100.59   -19 LegendNANA
09:00 Legend Double Dagger -13.6 -15.9 83 31 17 16.1 100.57   -22 LegendNANA
10:00 Legend Double Dagger -10.8 -13.3 82 28 9 16.1 100.55   -16 LegendNANA
11:00 Legend Double Dagger -9.8 -12.3 82 30 15 16.1 100.51   -16 LegendNANA
12:00 Legend Double Dagger -10.4 -12.8 83 31 15 16.1 100.51   -17 LegendNANA
13:00 Legend Double Dagger -11.0 -13.2 84 34 5 16.1 100.51   -14 LegendNANA
14:00 Legend Double Dagger -10.6 -12.3 87 LegendMM 4 16.1 100.51   -13 LegendNANA
15:00 Legend Double Dagger -7.6 -9.7 85 15 13 16.1 100.48   -13 LegendNANA
16:00 Legend Double Dagger -6.8 -7.9 92 14 21 16.1 100.46   -14 LegendNANA
17:00 Legend Double Dagger -5.7 -7.1 90 14 24 16.1 100.44   -13 LegendNANA
18:00 Legend Double Dagger -4.4 -7.8 77 13 37 16.1 100.40   -13 LegendNANA
19:00 Legend Double Dagger -3.7 -7.6 74 12 32 16.1 100.39   -12 LegendNANA
20:00 Legend Double Dagger -4.2 -5.6 90 16 30 6.4 100.37   -12 Snow
21:00 Legend Double Dagger -3.9 -4.9 93 13 32 2.0 100.33   -12 Snow
22:00 Legend Double Dagger -4.2 -5.2 93 13 18 16.1 100.31   -10 LegendNANA
23:00 Legend Double Dagger -3.8 -6.0 85 14 28 16.1 100.29   -11 LegendNANA

Notes on Data Quality.

Legend

  • E = Estimated
  • M = Missing
  • NA = Not Available
  • ‡ = Partner data that is not subject to review by the National Climate Archives
Date modified: